This demonstration page uses our WeatherBlox Daily Observations layout. Learn more.

Hourly Observations for February 27, 2019

Temp ( °F °C ) Dew Point ( °F °C ) Humidity (%) Winds ( mph kmh ) Pressure ( in mb ) Visibility ( mi km ) Precip ( " mm )
12:15 am 00:15 Cloudy 7 -14.1 4 -15.8 87 87 NW 6 9 30.47 1032 10 16.0934 0 0
12:35 am 00:35 Cloudy with Light Snow 5 -15.1 2 -16.9 86 86 N 6 9 30.48 1032 10 16.0934 0 0
12:55 am 00:55 Cloudy 5 -14.8 3 -16.2 89 89 N 9 15 30.48 1032 10 16.0934 0 0
1:15 am 01:15 Cloudy 5 -14.8 2 -16.5 87 87 N 8 13 30.49 1032 10 16.0934 0 0
1:35 am 01:35 Cloudy 5 -15 2 -16.6 88 88 N 9 15 30.5 1033 10 16.0934 0 0
1:55 am 01:55 Cloudy 4 -15.3 1 -17.1 86 86 N 9 15 30.5 1033 10 16.0934 0 0
2:15 am 02:15 Partly Cloudy 4 -15.7 1 -17.5 86 86 N 12 19 30.52 1033 10 16.0934 0 0
2:35 am 02:35 Clear 3 -16 0 -17.9 85 85 N 10 17 30.53 1034 10 16.0934 0 0
2:55 am 02:55 Clear 3 -16.1 0 -18 85 85 N 10 17 30.53 1034 10 16.0934 0 0
3:15 am 03:15 Clear 3 -16 0 -18 85 85 N 14 22 30.53 1034 10 16.0934 0 0
3:35 am 03:35 Clear 4 -15.5 0 -17.7 83 83 N 13 20 30.53 1034 10 16.0934 0 0
3:55 am 03:55 Clear 4 -15.5 0 -17.8 83 83 N 13 20 30.53 1034 10 16.0934 0 0
4:15 am 04:15 Clear 4 -15.5 0 -18 81 81 N 12 19 30.55 1035 10 16.0934 0 0
4:35 am 04:35 Clear 3 -15.9 -1 -18.2 83 83 NNW 12 19 30.57 1035 10 16.0934 0 0
4:55 am 04:55 Clear 3 -16 -1 -18.5 81 81 N 12 19 30.58 1036 10 16.0934 0 0
5:15 am 05:15 Clear 4 -15.8 -1 -18.5 80 80 N 14 22 30.57 1035 10 16.0934 0 0
5:35 am 05:35 Clear 3 -16 -2 -18.7 80 80 N 14 22 30.57 1035 10 16.0934 0 0
5:55 am 05:55 Clear 3 -16.2 -2 -19 79 79 N 16 26 30.58 1036 10 16.0934 0 0
6:15 am 06:15 Clear 3 -16.3 -3 -19.3 78 78 N 15 24 30.58 1036 10 16.0934 0 0
6:35 am 06:35 Clear 2 -16.6 -3 -19.6 78 78 N 14 22 30.58 1035 10 16.0934 0 0
6:55 am 06:55 Clear 1 -17 -4 -20 78 78 N 18 30 30.57 1035 10 16.0934 0 0
7:15 am 07:15 Sunny 1 -17 -4 -20 78 78 N 14 22 30.59 1036 10 16.0934 0 0
7:35 am 07:35 Sunny 1 -17 -4 -20 78 78 N 12 19 30.61 1037 10 16.0934 0 0
7:55 am 07:55 Sunny 2 -16.8 -4 -20 76 76 N 13 20 30.62 1037 10 16.0934 0 0
8:15 am 08:15 Sunny 2 -16.6 -4 -20 75 75 N 13 20 30.62 1037 10 16.0934 0 0
8:35 am 08:35 Sunny 3 -16.3 -4 -19.8 75 75 N 12 19 30.62 1037 10 16.0934 0 0
8:55 am 08:55 Sunny 3 -16 -3 -19.7 73 73 N 9 15 30.63 1037 10 16.0934 0 0
9:15 am 09:15 Sunny 4 -15.5 -3 -19.5 72 72 N 12 19 30.64 1037 10 16.0934 0 0
9:35 am 09:35 Sunny 5 -15.2 -2 -19 73 73 N 14 22 30.62 1037 10 16.0934 0 0
9:55 am 09:55 Sunny 6 -14.7 -1 -18.3 74 74 N 17 28 30.61 1036 10 16.0934 0 0
10:15 am 10:15 Sunny 6 -14.4 0 -18 74 74 N 17 28 30.59 1036 10 16.0934 0 0
10:35 am 10:35 Sunny 7 -14.1 0 -17.8 74 74 N 16 26 30.6 1036 10 16.0934 0 0
10:55 am 10:55 Sunny 7 -13.9 0 -17.8 73 73 N 16 26 30.61 1037 10 16.0934 0 0
11:15 am 11:15 Sunny 8 -13.5 0 -17.6 72 72 N 15 24 30.6 1036 10 16.0934 0 0
11:35 am 11:35 Sunny 8 -13.2 1 -17.4 71 71 N 13 20 30.6 1036 10 16.0934 0 0
11:55 am 11:55 Sunny 9 -12.8 1 -17 71 71 N 14 22 30.59 1036 10 16.0934 0 0
12:15 pm 12:15 Sunny 9 -12.6 2 -16.8 71 71 N 10 17 30.57 1035 10 16.0934 0 0
12:35 pm 12:35 Sunny 10 -12.3 2 -16.5 71 71 N 13 20 30.57 1035 10 16.0934 0 0
12:55 pm 12:55 Sunny 10 -12 3 -16.2 71 71 N 13 20 30.56 1035 10 16.0934 0 0
1:15 pm 13:15 Sunny 11 -11.8 2 -16.5 68 68 N 17 28 30.56 1035 10 16.0934 0 0
1:35 pm 13:35 Sunny 11 -11.7 3 -16.2 70 70 N 16 26 30.55 1035 10 16.0934 0 0
1:55 pm 13:55 Sunny 11 -11.7 3 -16.3 69 69 N 13 20 30.53 1034 10 16.0934 0 0
2:15 pm 14:15 Sunny 11 -11.6 3 -16.1 70 70 N 14 22 30.53 1034 10 16.0934 0 0
2:35 pm 14:35 Sunny 11 -11.5 4 -15.8 71 71 N 12 19 30.52 1034 10 16.0934 0 0
2:55 pm 14:55 Sunny 12 -11.2 4 -15.8 69 69 N 14 22 30.52 1033 10 16.0934 0 0
3:15 pm 15:15 Sunny 12 -11.2 4 -15.7 70 70 N 12 19 30.51 1033 10 16.0934 0 0
3:35 pm 15:35 Sunny 12 -11.2 4 -15.6 70 70 N 14 22 30.5 1033 10 16.0934 0 0
3:55 pm 15:55 Sunny 12 -11.3 3 -15.9 69 69 N 14 22 30.5 1033 10 16.0934 0 0
4:15 pm 16:15 Sunny 12 -11.3 4 -15.8 70 70 NNE 12 19 30.49 1032 10 16.0934 0 0
4:35 pm 16:35 Sunny 11 -11.5 3 -16 70 70 N 13 20 30.48 1032 10 16.0934 0 0
4:55 pm 16:55 Sunny 11 -11.7 3 -15.9 71 71 N 13 20 30.48 1032 10 16.0934 0 0
5:15 pm 17:15 Sunny 10 -12 3 -16.2 71 71 NNE 12 19 30.49 1032 10 16.0934 0 0
5:35 pm 17:35 Sunny 10 -12.1 3 -16.1 72 72 N 10 17 30.5 1033 10 16.0934 0 0
5:55 pm 17:55 Sunny 10 -12.5 3 -16.3 74 74 N 6 9 30.5 1033 10 16.0934 0 0
6:15 pm 18:15 Sunny 9 -12.8 2 -16.5 74 74 N 5 7 30.5 1033 10 16.0934 0 0
6:35 pm 18:35 Clear 8 -13.3 2 -16.6 76 76 Calm 30.49 1033 10 16.0934 0 0
6:55 pm 18:55 Clear 8 -13.6 2 -16.7 78 78 Calm 30.49 1033 10 16.0934 0 0
7:15 pm 19:15 Clear 8 -13.6 2 -16.6 78 78 Calm 30.48 1032 10 16.0934 0 0
7:35 pm 19:35 Clear 7 -14.1 2 -16.9 80 80 Calm 30.49 1032 10 16.0934 0 0
7:55 pm 19:55 Clear 5 -15.2 0 -17.8 81 81 Calm 30.51 1033 10 16.0934 0 0
8:15 pm 20:15 Clear 5 -15.2 1 -17.4 83 83 Calm 30.51 1033 10 16.0934 0 0
8:35 pm 20:35 Clear 3 -16.3 -1 -18.5 83 83 Calm 30.5 1033 10 16.0934 0 0
8:55 pm 20:55 Clear 2 -16.4 -1 -18.5 84 84 NE 3 6 30.5 1033 10 16.0934 0 0
9:15 pm 21:15 Clear 1 -17.2 -3 -19.3 84 84 Calm 30.53 1034 10 16.0934 0 0
9:35 pm 21:35 Clear 1 -17 -2 -19 85 85 Calm 30.52 1034 10 16.0934 0 0
9:55 pm 21:55 Clear 2 -16.7 -2 -18.7 85 85 Calm 30.53 1034 10 16.0934 0 0
10:15 pm 22:15 Clear 2 -16.7 -2 -18.8 84 84 Calm 30.53 1034 10 16.0934 0 0
10:35 pm 22:35 Clear 3 -16 0 -18 85 85 Calm 30.5 1033 10 16.0934 0 0
10:55 pm 22:55 Clear 4 -15.8 0 -17.8 85 85 Calm 30.49 1032 10 16.0934 0 0
11:15 pm 23:15 Clear 4 -15.6 0 -17.8 83 83 Calm 30.49 1032 10 16.0934 0 0
11:35 pm 23:35 Clear 3 -16 0 -18 85 85 Calm 30.49 1032 10 16.0934 0 0
11:55 pm 23:55 Clear 5 -14.8 2 -16.8 85 85 Calm 30.47 1032 10 16.0934 0 0

Powered by AerisWeather